Location: Newark
(46.7000°N, 60.6000°W)
Time: 08:49:46
(UTC+00:00)

Vanguard 3 - Pass Details

Date: 05 November 2020
Orbit: 508 x 3262 km, 33.3° (Epoch: 29 November)

Event Time Altitude Azimuth Distance (km) Brightness Sun altitude
Rises 05:36:05 0° 198° (SSW) 4,753 - -51.6°
Reaches altitude 10° 05:39:44 10° 184° (S) 4,178 - -51.1°
Exits shadow 05:48:20 23° 138° (SE) 4,008 10.5 -50.0°
Maximum altitude 05:48:26 23° 137° (SE) 4,018 10.5 -50.0°
Drops below altitude 10° 06:00:15 10° 94° (E) 5,844 11.8 -48.4°
Sets 06:06:41 0° 83° (E) 7,120 12.5 -47.6°
